Погода в Дальнем

Россия / Томская область     58°43′15″N   82°56′12″E
темп.,
°C
ветер,
м/с
пор.,
м/с
влажн.,
%
обл.,
%
осадки,
мм/ч
давл.,
гПа
погр.,
м
16 июня, ср
ср1601:00+18ююв397330 0.0 1007197
04:00+15зюз2974100 0.0 1007155
07:00+18зюз257122 0.0 1007156
10:00+23з365517 0.0 1008742
13:00+26з574575 0.0 10081719
16:00+18юз41277100 0.3 1008725
19:00+20з368254 1.2 1007235
22:00+17ююз1191100 0.5 100611
17 июня, чт
чт1701:00+16ю2298100 4.3 100646
04:00+15юз2599100 2.7 1005128
07:00+16зюз259539 2.7 1005261
10:00+16зсз3489100 0.1 1006506
13:00+16зсз4686100 0.3 1006571
16:00+19сз3558100 0.1 10061266
19:00+20з136062 0.1 1005573
22:00+16зюз22820 0.1 100425
18 июня, пт
пт1801:00+14зюз22855 0.1 100416
04:00+12ююз11905 0.0 100310
07:00+16ю23745 0.0 1003120
10:00+22ю34523 0.0 1001567
13:00+26ю454345 0.0 10001368
16:00+29ююз464156 0.0 9992068
19:00+26ююв465568 0.0 997800
22:00+17ссв4698100 12.7 999163
19 июня, сб
сб1901:00+16юз1199100 13.4 100019
04:00+12сз4898100 0.8 1000292
07:00+10ссз4998100 1.1 1000326
10:00+9сз4898100 2.6 1002448
13:00+9ссз5996100 5.9 1003449
16:00+9ссз5890100 0.0 1004587
19:00+9ссз4986100 0.1 1004586
22:00+8ссз4990100 0.1 1004592
20 июня, вс
вс2001:00+8ссз3786100 0.1 1003431
04:00+8сз3785100 0.2 1003428
07:00+8сз2579100 0.2 1002425
10:00+10ссз1378100 0.1 1002473
13:00+12ссз2372100 0.1 1002634
16:00+15св236591 0.0 1001960
19:00+14в2376100 0.0 1002623
22:00+11вюв2592100 0.0 1002199